• In Hungary
  • List of Countries
  • For 7 days
  • Water Temperature
  • Satellite Maps
  • Weather Map
  • News
  • Weather Widgets
  • user-avatar
    Login

    Hourly Weather Pleven

    Today, 19 October, Thursday

    Time Temperature Precipitation Wind Pressure Humidity
    00:00 +18°C° 0 mm 1 mps 748 mmHg 53%
    01:00 +18°C° 0 mm 1 mps 748 mmHg 54%
    02:00 +16°C° 0 mm 1 mps 748 mmHg 55%
    03:00 +16°C° 0 mm 1 mps 747 mmHg 55%
    04:00 +16°C° 0 mm 1 mps 747 mmHg 55%
    05:00 +16°C° 0 mm 1 mps 747 mmHg 55%
    06:00 +16°C° 0 mm 1 mps 747 mmHg 55%
    07:00 +16°C° 0 mm 1 mps 747 mmHg 55%
    08:00 +18°C° 0 mm 1 mps 747 mmHg 54%
    09:00 +20°C° 0 mm 1 mps 747 mmHg 48%
    10:00 +22°C° 0 mm 1 mps 747 mmHg 43%
    11:00 +24°C° 0 mm 1 mps 747 mmHg 37%
    12:00 +25°C° 0 mm 1 mps 747 mmHg 35%
    13:00 +26°C° 0 mm 1 mps 746 mmHg 33%
    14:00 +27°C° 0 mm 1 mps 746 mmHg 31%
    15:00 +26°C° 0 mm 1 mps 746 mmHg 35%
    16:00 +24°C° 0 mm 1 mps 746 mmHg 39%
    17:00 +23°C° 0 mm 1 mps 746 mmHg 43%
    18:00 +22°C° 0 mm 1 mps 746 mmHg 45%
    19:00 +21°C° 0 mm 1 mps 746 mmHg 47%
    20:00 +20°C° 0 mm 1 mps 746 mmHg 49%
    21:00 +19°C° 0 mm 1 mps 746 mmHg 50%
    22:00 +19°C° 0 mm 1 mps 746 mmHg 51%
    23:00 +18°C° 0 mm 1 mps 746 mmHg 51%

    Tomorrow, 20 October, Friday

    Time Temperature Precipitation Wind Pressure Humidity
    00:00 +18°C° 0 mm 1 mps 747 mmHg 52%
    01:00 +18°C° 0 mm 1 mps 747 mmHg 53%
    02:00 +16°C° 0 mm 1 mps 747 mmHg 53%
    03:00 +16°C° 0 mm 1 mps 746 mmHg 54%
    04:00 +16°C° 0 mm 1 mps 746 mmHg 54%
    05:00 +16°C° 0 mm 1 mps 746 mmHg 55%
    06:00 +16°C° 0 mm 1 mps 746 mmHg 54%
    07:00 +16°C° 0 mm 1 mps 747 mmHg 54%
    08:00 +18°C° 0 mm 1 mps 747 mmHg 54%
    09:00 +20°C° 0 mm 1 mps 747 mmHg 48%
    10:00 +22°C° 0 mm 1 mps 747 mmHg 43%
    11:00 +25°C° 0 mm 1 mps 747 mmHg 37%
    12:00 +25°C° 0 mm 2 mps 747 mmHg 36%
    13:00 +26°C° 0 mm 2 mps 747 mmHg 34%
    14:00 +27°C° 0 mm 2 mps 746 mmHg 33%
    15:00 +26°C° 0 mm 2 mps 746 mmHg 36%
    16:00 +24°C° 0 mm 1 mps 746 mmHg 40%
    17:00 +23°C° 0 mm 1 mps 746 mmHg 44%
    18:00 +22°C° 0 mm 1 mps 746 mmHg 46%
    19:00 +21°C° 0 mm 1 mps 747 mmHg 48%
    20:00 +20°C° 0 mm 1 mps 747 mmHg 50%
    21:00 +19°C° 0 mm 1 mps 747 mmHg 51%
    22:00 +19°C° 0 mm 1 mps 747 mmHg 52%
    23:00 +18°C° 0 mm 2 mps 748 mmHg 53%

    Day after tomorrow, 21 October, Saturday

    Time Temperature Precipitation Wind Pressure Humidity
    00:00 +17°C° 0 mm 2 mps 748 mmHg 54%
    01:00 +17°C° 0 mm 2 mps 748 mmHg 54%
    02:00 +16°C° 0 mm 2 mps 748 mmHg 55%
    03:00 +16°C° 0 mm 2 mps 747 mmHg 55%
    04:00 +16°C° 0 mm 2 mps 747 mmHg 56%
    05:00 +15°C° 0 mm 2 mps 747 mmHg 56%
    06:00 +16°C° 0 mm 2 mps 747 mmHg 56%
    07:00 +16°C° 0 mm 2 mps 748 mmHg 56%
    08:00 +16°C° 0 mm 2 mps 748 mmHg 55%
    09:00 +18°C° 0 mm 2 mps 748 mmHg 49%
    10:00 +20°C° 0 mm 2 mps 748 mmHg 43%
    11:00 +22°C° 0 mm 3 mps 748 mmHg 37%
    12:00 +24°C° 0 mm 3 mps 748 mmHg 36%
    13:00 +25°C° 0 mm 3 mps 747 mmHg 35%
    14:00 +25°C° 0 mm 3 mps 747 mmHg 33%
    15:00 +24°C° 0 mm 2 mps 747 mmHg 37%
    16:00 +23°C° 0 mm 2 mps 746 mmHg 41%
    17:00 +22°C° 0 mm 1 mps 746 mmHg 44%
    18:00 +21°C° 0 mm 1 mps 746 mmHg 46%
    19:00 +20°C° 0 mm 1 mps 747 mmHg 49%
    20:00 +19°C° 0 mm 1 mps 747 mmHg 51%
    21:00 +18°C° 0 mm 1 mps 747 mmHg 52%
    22:00 +17°C° 0 mm 2 mps 747 mmHg 54%
    23:00 +16°C° 0 mm 2 mps 747 mmHg 55%

    22 October, Sunday

    Time Temperature Precipitation Wind Pressure Humidity
    00:00 +16°C° 0 mm 2 mps 747 mmHg 56%
    01:00 +16°C° 0 mm 2 mps 747 mmHg 58%
    02:00 +15°C° 0 mm 2 mps 747 mmHg 59%
    03:00 +15°C° 0 mm 2 mps 746 mmHg 60%
    04:00 +15°C° 0 mm 2 mps 746 mmHg 61%
    05:00 +15°C° 0 mm 2 mps 746 mmHg 62%
    06:00 +15°C° 0 mm 1 mps 746 mmHg 61%
    07:00 +15°C° 0 mm 1 mps 746 mmHg 60%
    08:00 +16°C° 0 mm 1 mps 746 mmHg 60%
    09:00 +19°C° 0 mm 1 mps 746 mmHg 54%
    10:00 +21°C° 0 mm 1 mps 746 mmHg 48%
    11:00 +23°C° 0 mm 1 mps 746 mmHg 41%
    12:00 +23°C° 0 mm 1 mps 745 mmHg 40%
    13:00 +24°C° 0 mm 1 mps 745 mmHg 38%
    14:00 +25°C° 0 mm 1 mps 744 mmHg 36%
    15:00 +24°C° 0 mm 1 mps 744 mmHg 39%
    16:00 +23°C° 0 mm 1 mps 744 mmHg 42%
    17:00 +22°C° 0 mm 1 mps 744 mmHg 46%
    18:00 +21°C° 0 mm 1 mps 744 mmHg 48%
    19:00 +20°C° 0 mm 1 mps 744 mmHg 50%
    20:00 +17°C° 0 mm 2 mps 744 mmHg 52%
    21:00 +17°C° 0 mm 2 mps 744 mmHg 53%
    22:00 +17°C° 0 mm 2 mps 743 mmHg 54%
    23:00 +16°C° 0 mm 2 mps 743 mmHg 55%

    23 October, Monday

    Time Temperature Precipitation Wind Pressure Humidity
    00:00 +16°C° 0 mm 2 mps 743 mmHg 56%
    01:00 +16°C° 0 mm 2 mps 743 mmHg 57%
    02:00 +15°C° 0 mm 2 mps 743 mmHg 57%
    03:00 +15°C° 0 mm 2 mps 742 mmHg 58%
    04:00 +15°C° 0 mm 2 mps 742 mmHg 59%
    05:00 +15°C° 0 mm 2 mps 742 mmHg 59%
    06:00 +15°C° 0 mm 2 mps 741 mmHg 60%
    07:00 +16°C° 0 mm 2 mps 741 mmHg 60%
    08:00 +16°C° 0 mm 2 mps 741 mmHg 60%
    09:00 +17°C° 0 mm 2 mps 741 mmHg 55%
    10:00 +19°C° 0 mm 2 mps 741 mmHg 51%
    11:00 +21°C° 0 mm 2 mps 740 mmHg 46%
    12:00 +21°C° 0 mm 2 mps 740 mmHg 44%
    13:00 +23°C° 0 mm 2 mps 740 mmHg 42%
    14:00 +23°C° 0 mm 2 mps 739 mmHg 41%
    15:00 +21°C° 0 mm 2 mps 739 mmHg 44%
    16:00 +21°C° 0 mm 2 mps 739 mmHg 47%
    17:00 +20°C° 0 mm 2 mps 739 mmHg 50%
    18:00 +19°C° 0 mm 2 mps 739 mmHg 53%
    19:00 +18°C° 0 mm 3 mps 740 mmHg 56%
    20:00 +17°C° 0 mm 3 mps 740 mmHg 59%
    21:00 +17°C° 0 mm 4 mps 740 mmHg 64%
    22:00 +15°C° 0 mm 4 mps 741 mmHg 68%
    23:00 +15°C° 0 mm 4 mps 741 mmHg 72%

    24 October, Tuesday

    Time Temperature Precipitation Wind Pressure Humidity
    00:00 +14°C° 0 mm 4 mps 741 mmHg 74%
    01:00 +14°C° 0 mm 4 mps 741 mmHg 77%
    02:00 +14°C° 0 mm 4 mps 742 mmHg 79%
    03:00 +14°C° 0 mm 5 mps 742 mmHg 79%
    04:00 +14°C° 0 mm 5 mps 742 mmHg 80%
    05:00 +14°C° 0 mm 5 mps 742 mmHg 80%
    06:00 +14°C° 0.1 mm 5 mps 743 mmHg 80%
    07:00 +14°C° 0.1 mm 5 mps 743 mmHg 79%
    08:00 +14°C° 0.1 mm 5 mps 743 mmHg 79%
    09:00 +14°C° 0.3 mm 5 mps 744 mmHg 78%
    10:00 +14°C° 0.3 mm 6 mps 744 mmHg 78%
    11:00 +15°C° 0.3 mm 6 mps 744 mmHg 77%
    12:00 +14°C° 0.3 mm 6 mps 744 mmHg 77%
    13:00 +14°C° 0.3 mm 6 mps 744 mmHg 78%
    14:00 +14°C° 0.3 mm 7 mps 744 mmHg 78%
    15:00 +14°C° 0.2 mm 6 mps 745 mmHg 76%
    16:00 +15°C° 0.2 mm 6 mps 745 mmHg 75%
    17:00 +15°C° 0.2 mm 6 mps 745 mmHg 73%
    18:00 +14°C° 0 mm 6 mps 746 mmHg 72%
    19:00 +14°C° 0 mm 6 mps 746 mmHg 71%
    20:00 +13°C° 0 mm 6 mps 747 mmHg 71%
    21:00 +13°C° 0 mm 6 mps 747 mmHg 71%
    22:00 +11°C° 0 mm 6 mps 747 mmHg 71%
    23:00 +10°C° 0 mm 6 mps 748 mmHg 72%
    Show more